TimeCST,TemperatureF,Dew PointF,Humidity,Sea Level PressureIn,VisibilityMPH,Wind Direction,Wind SpeedMPH,Gust SpeedMPH,PrecipitationIn,Events,Conditions,WindDirDegrees,DateUTC
12:15 AM,37.2,28.4,70,29.65,10.0,West,13.8,-,N/A,,Clear,260,2013-03-04 06:15:00
12:35 AM,36.9,28.2,71,29.65,10.0,West,6.9,-,N/A,,Clear,270,2013-03-04 06:35:00
12:55 AM,35.8,27.7,72,29.66,10.0,WNW,4.6,-,N/A,,Clear,300,2013-03-04 06:55:00
1:15 AM,38.1,28.9,70,29.67,10.0,NW,8.1,-,N/A,,Clear,320,2013-03-04 07:15:00
1:55 AM,33.1,28.4,83,29.71,10.0,North,25.3,33.4,N/A,,Clear,350,2013-03-04 07:55:00
2:15 AM,31.6,27.1,83,29.73,10.0,North,15.0,-,N/A,,Clear,350,2013-03-04 08:15:00
2:35 AM,30.7,26.2,83,29.73,10.0,North,18.4,24.2,N/A,,Scattered Clouds,360,2013-03-04 08:35:00
2:55 AM,30.2,24.8,80,29.73,10.0,North,19.6,24.2,N/A,,Overcast,360,2013-03-04 08:55:00
3:15 AM,29.8,24.4,80,29.74,10.0,North,15.0,19.6,N/A,,Mostly Cloudy,10,2013-03-04 09:15:00
3:35 AM,29.3,24.1,81,29.75,10.0,North,11.5,18.4,N/A,,Scattered Clouds,350,2013-03-04 09:35:00
3:55 AM,29.3,23.7,80,29.75,10.0,North,17.3,21.9,N/A,,Clear,350,2013-03-04 09:55:00
4:15 AM,29.3,23.0,77,29.74,10.0,NNW,17.3,25.3,N/A,,Clear,340,2013-03-04 10:15:00
4:35 AM,28.4,23.0,80,29.75,10.0,NNW,18.4,-,N/A,,Clear,340,2013-03-04 10:35:00
4:55 AM,28.2,22.8,80,29.76,10.0,NNW,17.3,-,N/A,,Clear,340,2013-03-04 10:55:00
5:15 AM,27.9,22.3,80,29.77,10.0,NNW,16.1,21.9,N/A,,Clear,340,2013-03-04 11:15:00
5:35 AM,27.3,21.9,80,29.77,10.0,NNW,15.0,-,N/A,,Clear,340,2013-03-04 11:35:00
5:55 AM,27.5,21.6,78,29.77,10.0,NNW,18.4,25.3,N/A,,Clear,340,2013-03-04 11:55:00
6:15 AM,27.1,21.4,79,29.79,10.0,North,12.7,-,N/A,,Clear,350,2013-03-04 12:15:00
6:35 AM,26.2,21.2,81,29.79,10.0,NNW,12.7,-,N/A,,Clear,340,2013-03-04 12:35:00
6:55 AM,25.9,21.6,84,29.79,10.0,North,15.0,-,N/A,,Clear,350,2013-03-04 12:55:00
7:15 AM,26.2,21.2,81,29.79,10.0,NNW,8.1,-,N/A,,Clear,340,2013-03-04 13:15:00
7:35 AM,25.7,21.2,83,29.79,10.0,NNW,10.4,-,N/A,,Clear,330,2013-03-04 13:35:00
7:55 AM,26.2,21.4,82,29.79,10.0,NNW,13.8,-,N/A,,Clear,340,2013-03-04 13:55:00
8:15 AM,27.7,21.7,78,29.79,10.0,North,13.8,-,N/A,,Clear,350,2013-03-04 14:15:00
8:35 AM,29.5,21.6,72,29.79,10.0,North,13.8,-,N/A,,Clear,350,2013-03-04 14:35:00
8:55 AM,31.1,21.6,68,29.79,10.0,North,18.4,-,N/A,,Clear,360,2013-03-04 14:55:00
9:15 AM,31.8,20.5,63,29.79,10.0,North,19.6,28.8,N/A,,Clear,360,2013-03-04 15:15:00
9:35 AM,32.0,18.7,58,29.78,10.0,North,29.9,-,N/A,,Scattered Clouds,350,2013-03-04 15:35:00
9:55 AM,32.9,19.6,58,29.79,10.0,North,23.0,28.8,N/A,,Mostly Cloudy,350,2013-03-04 15:55:00
10:15 AM,32.5,19.9,60,29.79,10.0,North,24.2,29.9,N/A,,Overcast,350,2013-03-04 16:15:00
10:35 AM,33.4,18.0,53,29.79,10.0,North,26.5,34.5,N/A,,Mostly Cloudy,350,2013-03-04 16:35:00
10:55 AM,32.0,17.4,55,29.83,10.0,NNW,20.7,26.5,N/A,,Mostly Cloudy,340,2013-03-04 16:55:00
11:15 AM,33.1,17.8,53,29.83,10.0,NNW,16.1,24.2,N/A,,Overcast,340,2013-03-04 17:15:00
11:35 AM,34.3,18.0,51,29.83,10.0,NNW,15.0,20.7,N/A,,Overcast,340,2013-03-04 17:35:00
11:55 AM,35.1,17.8,49,29.83,10.0,NNW,23.0,26.5,N/A,,Overcast,330,2013-03-04 17:55:00
12:15 PM,35.8,18.5,50,29.84,10.0,NW,20.7,27.6,N/A,,Overcast,320,2013-03-04 18:15:00
12:55 PM,34.9,14.5,43,29.86,10.0,NW,24.2,32.2,N/A,,Overcast,320,2013-03-04 18:55:00
1:15 PM,34.0,11.5,39,29.86,10.0,NW,27.6,38.0,N/A,,Overcast,320,2013-03-04 19:15:00
1:35 PM,33.4,8.4,35,29.86,10.0,NNW,32.2,36.8,N/A,,Overcast,330,2013-03-04 19:35:00
1:55 PM,34.3,6.6,31,29.85,10.0,NNW,29.9,38.0,N/A,,Overcast,330,2013-03-04 19:55:00
2:15 PM,34.5,6.4,31,29.86,10.0,NNW,25.3,38.0,N/A,,Overcast,330,2013-03-04 20:15:00
2:35 PM,33.8,6.4,32,29.86,10.0,NNW,29.9,38.0,N/A,,Overcast,330,2013-03-04 20:35:00
2:55 PM,33.1,11.5,41,29.87,10.0,NNW,28.8,38.0,N/A,,Overcast,340,2013-03-04 20:55:00
3:15 PM,32.5,10.8,40,29.88,10.0,NNW,28.8,35.7,N/A,,Mostly Cloudy,330,2013-03-04 21:15:00
3:35 PM,32.2,7.0,35,29.88,10.0,NNW,32.2,38.0,N/A,,Overcast,330,2013-03-04 21:35:00
3:55 PM,32.4,6.8,34,29.92,10.0,NNW,27.6,38.0,N/A,,Mostly Cloudy,330,2013-03-04 21:55:00
4:15 PM,32.9,7.2,34,29.92,10.0,NNW,23.0,33.4,N/A,,Scattered Clouds,340,2013-03-04 22:15:00
4:35 PM,34.2,5.7,30,29.94,10.0,NNW,21.9,36.8,N/A,,Scattered Clouds,330,2013-03-04 22:35:00
4:55 PM,33.1,5.9,32,29.95,10.0,NNW,25.3,33.4,N/A,,Mostly Cloudy,330,2013-03-04 22:55:00
5:15 PM,34.0,6.6,32,29.96,10.0,NNW,29.9,38.0,N/A,,Mostly Cloudy,330,2013-03-04 23:15:00
5:35 PM,32.5,9.0,37,29.98,10.0,NNW,33.4,39.1,N/A,,Scattered Clouds,340,2013-03-04 23:35:00
5:55 PM,31.5,9.5,40,30.01,10.0,North,21.9,34.5,N/A,,Scattered Clouds,350,2013-03-04 23:55:00
6:15 PM,30.2,9.5,42,30.02,10.0,NNW,26.5,35.7,N/A,,Scattered Clouds,340,2013-03-05 00:15:00
6:35 PM,28.9,8.8,43,30.03,10.0,NNW,27.6,36.8,N/A,,Clear,340,2013-03-05 00:35:00
6:55 PM,26.8,8.6,46,30.05,10.0,NNW,28.8,35.7,N/A,,Clear,340,2013-03-05 00:55:00
7:15 PM,25.5,8.6,49,30.07,10.0,NNW,23.0,33.4,N/A,,Clear,340,2013-03-05 01:15:00
7:35 PM,24.8,8.4,50,30.08,10.0,NNW,21.9,29.9,N/A,,Clear,340,2013-03-05 01:35:00
7:55 PM,23.5,7.9,51,30.09,10.0,NNW,13.8,26.5,N/A,,Clear,340,2013-03-05 01:55:00
8:35 PM,22.6,8.4,55,30.11,10.0,NNW,17.3,25.3,N/A,,Clear,340,2013-03-05 02:35:00
8:55 PM,22.1,9.1,58,30.12,10.0,NNW,17.3,21.9,N/A,,Clear,340,2013-03-05 02:55:00
9:15 PM,21.7,9.3,59,30.13,10.0,NNW,11.5,-,N/A,,Clear,330,2013-03-05 03:15:00
9:35 PM,21.2,9.5,61,30.14,10.0,NNW,11.5,17.3,N/A,,Clear,330,2013-03-05 03:35:00
9:55 PM,20.1,9.5,63,30.14,10.0,NNW,12.7,-,N/A,,Clear,340,2013-03-05 03:55:00
10:15 PM,19.9,9.5,64,30.14,10.0,NNW,18.4,23.0,N/A,,Clear,330,2013-03-05 04:15:00
10:35 PM,19.4,9.0,64,30.15,10.0,NNW,20.7,26.5,N/A,,Clear,340,2013-03-05 04:35:00
10:55 PM,18.9,9.0,65,30.16,10.0,NW,17.3,21.9,N/A,,Clear,320,2013-03-05 04:55:00
11:15 PM,18.3,9.3,68,30.16,10.0,NNW,16.1,21.9,N/A,,Clear,330,2013-03-05 05:15:00
11:35 PM,18.1,9.5,69,30.16,10.0,NW,16.1,-,N/A,,Clear,320,2013-03-05 05:35:00
11:55 PM,18.9,9.9,68,30.17,10.0,NW,18.4,24.2,N/A,,Clear,320,2013-03-05 05:55:00